Regional Weather Roundup
Issued by NWS

Home | Current Version | Previous Version | Text Only | Print | Product List | Glossary Off
Versions: 1 2 3 4 5 6 7 8 9 10 11 12 13 14 15 16 17 18 19 20 21 22 23 24 25 26 27 28 29 30 31 32 33 34 35 36 37 38 39 40 41 42 43 44 45 46 47 48 49 50

000
ASUS43 KMKX 301800
RWRWI

WISCONSIN REGIONAL WEATHER ROUNDUP
NATIONAL WEATHER SERVICE MILWAUKEE/SULLIVAN WI
100 PM CDT THU MAR 30 2017

NOTE: "FAIR" INDICATES FEW OR NO CLOUDS BELOW 12,000 FEET WITH NO
SIGNIFICANT WEATHER AND/OR OBSTRUCTIONS TO VISIBILITY.

WIZ001-002-006>008-014>016-023>028-301900-
NORTHWEST WISCONSIN

CITY           SKY/WX    TMP DP  RH WIND       PRES   REMARKS
SUPERIOR ARPT  MOSUNNY   38  33  82 NE16G24   29.97F WCI  29
ASHLAND        CLOUDY    44  29  55 NE14      29.96F
6HR MIN TEMP:  31; 6HR MAX TEMP:  44;

HAYWARD        CLOUDY    49  32  52 E12       29.89F
6HR MIN TEMP:  36; 6HR MAX TEMP:  49;

SIREN          PTSUNNY   48  32  55 E13G18    29.89F
CUMBERLAND     CLOUDY    43  32  65 E14       29.88F
RICE LAKE      CLOUDY    45  33  63 E7        29.90F
CHETEK         CLOUDY    41  33  72 NE9       29.88F
LADYSMITH      CLOUDY    45  34  65 E14       29.90F
EAU CLAIRE     NOT AVBL
MENOMONIE      CLOUDY    42  35  78 NE13G18   29.85F
NEW RICHMOND   CLOUDY    44  33  64 E14G21    29.85F
OSCEOLA        CLOUDY    46  34  63 E12G20    29.89F
$$

WIZ003>005-009-010-017-018-301900-
NORTH CENTRAL WISCONSIN

CITY           SKY/WX    TMP DP  RH WIND       PRES   REMARKS
MANITOWISH WTR CLOUDY    38  26  61 NE6       29.93F WCI  34
ARBOR VITAE    CLOUDY    44  29  57 NE5       29.91F
WOODRUFF       CLOUDY    44  29  57 NE5       29.91F
RHINELANDER    CLOUDY    44  31  60 E16G23    29.90F
6HR MIN TEMP:  34; 6HR MAX TEMP:  45; 6HR PCP: TRACE;

EAGLE RIVER    PTSUNNY   43  28  55 E9        29.92F
LAND O LAKES   CLOUDY    41  27  57 E8        29.96F
PHILLIPS       CLOUDY    44  31  60 E10       29.88F
6HR MIN TEMP:  34; 6HR MAX TEMP:  45;

TOMAHAWK       CLOUDY    43  30  60 E9G17     29.89F
MEDFORD        CLOUDY    38  32  77 E14G20    29.86F WCI  30
MERRILL        CLOUDY    39  33  77 E13       29.89F WCI  32
$$

WIZ029-030-035-036-043>047-301900-
CENTRAL WISCONSIN

CITY           SKY/WX    TMP DP  RH WIND       PRES   REMARKS
WAUSAU         CLOUDY    39  33  79 E12       29.86F WCI  32
6HR MIN TEMP:  33; 6HR MAX TEMP:  39; 6HR PCP: TRACE;

MOSINEE        CLOUDY    37  36  93 NE16      29.87F WCI  28
MARSHFIELD     CLOUDY    38  33  82 E16G25    29.83F WCI  29
6HR MIN TEMP:  34; 6HR MAX TEMP:  38; 6HR PCP: TRACE;

STEVENS POINT  CLOUDY    34  33  96 NE14G21   29.87F WCI  24
WAUPACA        LGT SNOW  36  33  91 NE12      29.88F WCI  28
WAUTOMA        LGT RAIN  35  34  96 NE16      29.84  WCI  25
6HR MIN TEMP:  34; 6HR MAX TEMP:  36; 6HR PCP:  0.05;

WISC RAPIDS    CLOUDY    38  35  89 E16G23    29.85F WCI  29
6HR MIN TEMP:  35; 6HR MAX TEMP:  38; 6HR PCP: TRACE;

CAMP DOUGLAS   NOT AVBL
$$

WIZ011>013-019>022-031-037>040-048>050-301900-
NORTHEAST WISCONSIN

CITY           SKY/WX    TMP DP  RH WIND       PRES   REMARKS
ANTIGO         CLOUDY    36  33  87 E14       29.90F WCI  27
SHAWANO        CLOUDY    36  33  90 NE13G18   29.94S FOG     WCI  27
OCONTO         CLOUDY    34  32  94 NE14      29.95F WCI  24
STURGEON BAY   MIX PCPN  35  33  92 NE14      29.95F WCI  26
6HR MIN TEMP:  33; 6HR MAX TEMP:  35; 6HR PCP:  0.05;

GREEN BAY      LGT SNOW  35  35 100 NE16      29.91F FOG     WCI  25
6HR MIN TEMP:  34; 6HR MAX TEMP:  35; 6HR PCP:  0.09;

MANITOWOC      NOT AVBL
APPLETON       LGT SNOW  34  34 100 NE15G23   29.86F WCI  24
CLINTONVILLE   LGT RAIN  34  32  93 NE13G21   29.91F WCI  25
OSHKOSH        LGT RAIN  36  34  92 NE17G23   29.84F WCI  26
6HR MIN TEMP:  34; 6HR MAX TEMP:  36; 6HR PCP:  0.18;

$$

WIZ032>034-041-042-053>061-301900-
SOUTHWEST WISCONSIN

CITY           SKY/WX    TMP DP  RH WIND       PRES   REMARKS
LA CROSSE      CLOUDY    41  36  82 E18G25    29.79S
6HR MIN TEMP:  39; 6HR MAX TEMP:  41; 6HR PCP: TRACE;

SPARTA         CLOUDY    37  36  94 E13G22    29.82S WCI  29
VIROQUA        CLOUDY    37  37  97 E21G26    29.75F WCI  27
6HR MIN TEMP:  36; 6HR MAX TEMP:  37; 6HR PCP:  0.07;

BOSCOBEL       LGT RAIN  40  37  89 E7G17     29.77R
6HR MIN TEMP:  39; 6HR MAX TEMP:  41; 6HR PCP:  0.14;

PRAIRIE DU CHI CLOUDY    38  37  97 E8G18     29.75R WCI  32
PLATTEVILLE    CLOUDY    40  39  99 NE12G21   29.73S WCI  32
$$

WIZ056-057-062-063-064-067-068-301900-
SOUTH CENTRAL WISCONSIN

CITY           SKY/WX    TMP DP  RH WIND       PRES   REMARKS
REEDSBURG      LGT RAIN  37  37 100 E14G20    29.78F WCI  28
BARABOO/DELLS  DRIZZLE   37  36  93 NE14G20   29.78F WCI  29
LONE ROCK      LGT RAIN  39  35  86 NE18G29   29.75F WCI  30
MINERAL POINT  LGT RAIN  37  37 100 NE15G22   29.72R WCI  28
MADISON        RAIN      38  36  92 E16G23    29.77S VSB 1   WCI  29
6HR MIN TEMP:  37; 6HR MAX TEMP:  38; 6HR PCP:  0.15;

MIDDLETON      CLOUDY    39  39 100 E13       29.77F WCI  32
WATERTOWN      CLOUDY    38  38 100 E20G28    29.76F WCI  28
MONROE         RAIN      37  37 100 NE18G24   29.71F WCI  27
JANESVILLE     RAIN      39  39 100 NE12G29   29.70F WCI  32
$$

WIZ051-052-058>065-066-070>072-301900-
SOUTHEAST WISCONSIN

CITY           SKY/WX    TMP DP  RH WIND       PRES   REMARKS
MILWAUKEE      LGT RAIN  39  36  89 NE15      29.77F FOG     WCI  31
6HR MIN TEMP:  38; 6HR MAX TEMP:  39; 6HR PCP:  0.15;

WAUKESHA       NOT AVBL
MILWAUKEE/TIMM DRIZZLE   37  36  93 NE12G21   29.80F WCI  30
RACINE         RAIN      39  37  92 NE13      29.75F FOG     WCI  31
6HR MIN TEMP:  37; 6HR MAX TEMP:  39; 6HR PCP:  0.32;

KENOSHA        RAIN      39  38  96 NE17      29.71F FOG     WCI  30
6HR MIN TEMP:  38; 6HR MAX TEMP:  40; 6HR PCP:  0.42;

FOND DU LAC    LGT RAIN  39  34  82 NE20      29.83F WCI  29
6HR MIN TEMP:  35; 6HR MAX TEMP:  40;

SHEBOYGAN      LGT RAIN  37  35  92 NE23      29.84F FOG     WCI  26
6HR MIN TEMP:  34; 6HR MAX TEMP:  37; 6HR PCP:  0.20;

WEST BEND      LGT RAIN  36  36 100 E20G26    29.81F WCI  25
JUNEAU         LGT RAIN  37  36  94 NE17G26   29.79F WCI  28
$$

LSZ147-162-301900-
LAKE SUPERIOR

STATION/POSITION TIME  TEMP    WIND        PRES    WAVE
                       AIR SEA DIR/SP/G            HT/PER
                 (UTC) (F)     (DEG/KT/KT) (MB)    (FT/S)
DEVILS ISLAND    1700   35      50/ 12/ 13 1017.1F
PORT WING        1740   36      30/ 21/ 23 1015.2F
SAXON HARBOR     1730   36      40/  5/  6 1014.9F
$$

LMZ867-665-643>646-301900-
LAKE MICHIGAN

STATION/POSITION TIME  TEMP    WIND        PRES    WAVE
                       AIR SEA DIR/SP/G            HT/PER
                 (UTC) (F)     (DEG/KT/KT) (MB)    (FT/S)
CHAMBERS ISLAND  1740   33      40/ 14/ 18 1014.6F
NORTHPORT PIER   1740   34      60/ 16/ 21 1015.2F
SISTER BAY       1636   35      80/ 10/ 18   N/A
KEWAUNEE LAKESHO 1730   36      50/ 14/ 17 1013.0F
SHEBOYGAN LAKESH 1700   37      40/ 18/ 20 1011.9F
PORT WASHINGTON  1740   38      50/ 14/ 17 1011.2F
MILWAUKEE LAKESH 1730   37      50/ 16/ 18   N/A
KENOSHA   LAKESH 1700   39      70/ 13/ 15 1008.5
$$

TC  - TEMPERATURE IN CELSIUS
VSB - VISIBILITY IN STATUTE MILES
WCI - WIND CHILL INDEX
HX  - HEAT INDEX





USA.gov is the U.S. government's official web portal to all federal, state and local government web resources and services.